Regional Weather Roundup
Issued by NWS

Home | Current Version | Previous Version | Graphics & Text | Print | Product List | Glossary On
Versions: 1 2 3 4 5 6 7 8 9 10 11 12 13 14 15 16 17 18 19 20 21 22 23 24 25 26 27 28 29 30 31 32 33 34 35 36 37 38 39 40 41 42 43 44 45 46 47 48 49 50
000
ASUS45 KCYS 241010
RWRWY

WYOMING REGIONAL WEATHER ROUNDUP
NATIONAL WEATHER SERVICE CHEYENNE WY
300 AM MST SAT FEB 24 2018

NOTE:  "FAIR" INDICATES FEW OR NO CLOUDS BELOW 12,000 FEET
WITH NO SIGNIFICANT WEATHER AND/OR OBSTRUCTIONS TO VISIBILITY.

WYZ001-241100-
YELLOWSTONE NATIONAL PARK

CITY           SKY/WX    TMP DP  RH WIND       PRES   REMARKS
LK YELLOWSTONE   N/A     -2  -6  83 CALM      29.82F
W YELLOWSTONE  NOT AVBL

$$
WYZ002>013-054>058-071-098>099-241100-
NORTHERN WYOMING

CITY           SKY/WX    TMP DP  RH WIND       PRES   REMARKS
JACKSON        FLURRIES   7   3  84 SW6       29.92F WCI  -3
CODY           FAIR      20   2  45 W23G33    29.77F WCI   3
GREYBULL       FAIR     -11 -13  91 CALM      29.85F
WORLAND        FAIR      -5  -8  87 S5        29.82F WCI -16
SHERIDAN       FAIR      21  -1  38 W14       29.75F WCI   8
BUFFALO        FAIR      14  -4  44 NW8       29.71F WCI   3
GILLETTE       FAIR      19  12  74 S9G16     29.74F WCI   8
HULETT         LGT SNOW  23  18  80 S13       29.75F WCI  11
NEWCASTLE      CLOUDY    16   9  73 S8        29.82F WCI   5

$$
WYZ014>020-022>026-101>103-241100-
CENTRAL WYOMING

CITY           SKY/WX    TMP DP  RH WIND       PRES   REMARKS
BIG PINEY      FAIR      -6 -13  71 E6        29.90F WCI -19
PINEDALE       FAIR      -6 -11  77 NW10      29.90F WCI -23
DUBOIS           N/A    N/A N/A N/A MISG        N/A
LANDER         FAIR       2  -3  80 NW7       29.78F WCI -11
RIVERTON       FAIR       5  -5  63 W16       29.79F WCI -14
CASPER         FAIR      11   8  88 SW16      29.78F WCI  -6
DOUGLAS        FAIR       1  -2  87 CALM      29.79F

$$
WYZ021-027>030-104>119-241100-
SOUTHERN WYOMING

CITY           SKY/WX    TMP DP  RH WIND       PRES   REMARKS
EVANSTON       FAIR       3   0  87 W16       29.96F WCI -16
FORT BRIDGER   FAIR       7   1  78 W16       29.98F WCI -11
ROCK SPRINGS   FAIR       6   0  76 W21       29.92F WCI -14
DIXON          SNOW      15  12  88 W12       29.94S VSB 1/2 WCI   2
RAWLINS        FAIR       9   4  80 W30G38    29.81F HAZE    WCI -14
SARATOGA       CLOUDY    12   5  73 W12       29.83S WCI  -2
LARAMIE        FAIR      12   3  67 SW17      29.72F WCI  -5
CHEYENNE       MOCLDY    19  18  95 W9        29.75F FOG     WCI   8
TORRINGTON     CLOUDY    19  18  95 SE8       29.81F WCI   9
PINE BLUFFS    CLOUDY    21  21 100 SW6       29.80F FOG     WCI  14

$$



USA.gov is the U.S. government's official web portal to all federal, state and local government web resources and services.